{"data":{"norad_id":51998,"intl_designator":"2022-025AU","name":"STARLINK-3618","alt_names":[],"object_type":"PAYLOAD","status":"ACTIVE","operator":null,"country":"US","launch_date":"2022-03-09","launch_site_code":"AFETR","launch_vehicle":null,"mission":null,"orbit_class":"UNKNOWN","rcs_meters":null,"size_class":null,"mass_kg":null,"dimensions":null,"purposes":["comms"],"wikipedia_slug":null,"has_3d_model":false,"image_url":null,"decayed_at":null,"tle_current":{"epoch":"2026-09-19T06:42:34.803936Z","epoch_age_seconds":160917,"freshness":"FRESH","line1":"1 51998U 22025AU  26262.27956949 -.00000899  00000+0 -15475-4 0  9995","line2":"2 51998  53.1602 215.6724 0001386  81.1560 278.9599 15.34392180250346","mean_motion":15.3439218,"eccentricity":0.0001386,"inclination_deg":53.1602,"raan_deg":215.6724,"arg_perigee_deg":81.156,"mean_anomaly_deg":278.9599,"bstar":-1.5475e-5,"rev_number":25034,"period_min":93.848236374614,"perigee_km":461.77833931507,"apogee_km":463.67462667255,"semimajor_km":6840.8634829938,"source":"CELESTRAK","updated_at":"2026-09-20T09:00:39.982982Z"}}}